Location: Borealis Mine
(38.3824°N, 118.7610°W)
Time: 18:14:31
(UTC+00:00)

SL-16 R/B - Pass Details

Date: 18 September 2020
Orbit: 842 x 846 km, 71.0° (Epoch: 19 October)

Event Time Altitude Azimuth Distance (km) Brightness Sun altitude
Exits shadow 13:08:17 - 224° (SW) 3,364 4.8 -7.0°
Reaches altitude 10° 13:10:50 10° 232° (SW) 2,456 4.1 -6.5°
Maximum altitude 13:16:02 38° 299° (WNW) 1,277 2.8 -5.5°
Drops below altitude 10° 13:21:17 10° 7° (N) 2,471 4.8 -4.5°
Sets 13:23:56 0° 15° (NNE) 3,411 5.6 -3.9°
